sat.trackr.live / text

‹ back to catalog

STARLINK-2702

NORAD 48441 · 2021-040P

PAYLOAD ACTIVE UNKNOWN

§ Identity

Operator
Country
US
Launch date
2021-05-09
Launch site
AFETR
Launch vehicle
Mass (kg)
RCS (m²)

Purposes: comms

External: N2YO · Heavens-Above · Gunter

§ Orbital elements

Epoch: 2026-09-19T19:34:09.216480Z

Period
94.01 min
Inclination
53.1613°
Eccentricity
0.0001243
Mean motion
15.31702232 rev/d
Perigee alt
469.9 km
Apogee alt
471.6 km
Semi-major
6,848.9 km
B*
3.6574e-6
RAAN
354.7851°
Arg perigee
85.7903°
Mean anomaly
274.3240°
Rev number
29,642

§ Raw data

STARLINK-27021 48441U 21040P   26262.81538445 -.00000252  00000+0  36574-5 0  99932 48441  53.1613 354.7851 0001243  85.7903 274.3240 15.31702232296428

JSON: /api/v1/satellites/48441 · /tle

For live sub-satellite position, see the globe view (requires WebGL).

§ Visibility from observer

Set your observer location to see the next 7 days of passes ≥ 10°. The values pass through the URL so the page stays shareable.

No JS? Fill the form by hand. The geolocation button needs JavaScript.